{"data":{"norad_id":61744,"epoch":"2026-09-22T21:07:21.792576Z","epoch_age_seconds":94344,"freshness":"FRESH","line1":"1 61744U 24199K   26265.88011334  .00031206  00000+0  42257-3 0  9990","line2":"2 61744  97.2768 142.8599 0003957 275.7686  84.3118 15.57639532149540","mean_motion":15.57639532,"eccentricity":0.0003957,"inclination_deg":97.2768,"raan_deg":142.8599,"arg_perigee_deg":275.7686,"mean_anomaly_deg":84.3118,"bstar":0.00042257,"rev_number":14954,"period_min":92.447576632255,"perigee_km":391.81074396405,"apogee_km":397.17060150425,"semimajor_km":6772.6276727341,"source":"CELESTRAK","updated_at":"2026-09-23T09:00:21.024814Z"}}